Stations météo

Publicité
Winterbourne No 2, Grande-Bretagne (99062): Température de l'air & dewpoint: 21.10.2020 17:00:00 - 27.10.2020 17:00:00 (GMT)Winterbourne No 2, Grande-Bretagne (99062): Température de l'air -20cm & Température de l'air -100cm: 21.10.2020 17:00:00 - 27.10.2020 17:00:00 (GMT)Winterbourne No 2, Grande-Bretagne (99062): Quantités de précipitations: 21.10.2020 17:00:00 - 27.10.2020 17:00:00 (GMT)
Date & Time tt [°C] td [°C] tt -20cm [°C] tt -100cm [°C] rr [mm]
27.10.2020 17:00:00 - - - - -
27.10.2020 16:00:00 10,8 8,1 - - 0,0
27.10.2020 15:00:00 11,7 10,2 - - 0,4
27.10.2020 14:00:00 12,0 11,7 - - 0,6
27.10.2020 13:00:00 11,0 10,7 - - 1,0
27.10.2020 12:00:00 10,4 10,1 - - 0,2
27.10.2020 11:00:00 9,1 8,8 - - 0,4
27.10.2020 10:00:00 8,4 8,1 - - 0,4
27.10.2020 09:00:00 7,7 7,2 10,9 12,4 0,2
27.10.2020 08:00:00 7,6 6,9 - - 0,4
27.10.2020 07:00:00 7,8 7,2 - - 0,0
27.10.2020 06:00:00 7,0 6,4 - - 0,0
27.10.2020 05:00:00 6,6 5,8 - - 0,0
27.10.2020 04:00:00 6,6 5,6 - - 0,0
27.10.2020 03:00:00 6,1 5,5 - - 0,0
27.10.2020 02:00:00 6,2 5,4 - - 0,0
27.10.2020 01:00:00 6,8 6,0 - - 0,0
27.10.2020 00:00:00 6,5 5,8 - - 0,0
26.10.2020 23:00:00 6,5 5,8 - - 0,0
26.10.2020 22:00:00 7,1 6,1 - - 0,6
26.10.2020 21:00:00 7,3 6,0 - - 0,0
26.10.2020 20:00:00 7,4 5,5 - - 0,0
26.10.2020 19:00:00 7,9 5,6 - - 0,0
26.10.2020 18:00:00 8,7 5,9 - - 0,0
26.10.2020 17:00:00 9,5 5,8 - - 0,0
26.10.2020 16:00:00 10,6 5,9 - - 0,0
26.10.2020 15:00:00 12,0 6,2 - - 0,0
26.10.2020 14:00:00 12,4 6,8 - - 0,0
26.10.2020 13:00:00 12,2 6,6 - - 0,0
26.10.2020 12:00:00 11,3 8,2 - - 0,0
26.10.2020 11:00:00 10,8 8,9 - - 0,0
26.10.2020 10:00:00 8,8 8,0 - - 0,0
26.10.2020 09:00:00 7,7 7,1 11,2 12,5 0,0
26.10.2020 08:00:00 6,9 6,5 - - 0,4
26.10.2020 07:00:00 6,3 5,8 - - 0,0
26.10.2020 06:00:00 5,9 5,4 - - 0,0
26.10.2020 05:00:00 6,1 5,6 - - 0,0
26.10.2020 04:00:00 6,0 5,6 - - 0,0
26.10.2020 03:00:00 6,0 5,5 - - 0,0
26.10.2020 02:00:00 6,2 5,7 - - 0,2
26.10.2020 01:00:00 6,0 5,6 - - 0,0
26.10.2020 00:00:00 6,0 5,5 - - 0,0
25.10.2020 23:00:00 6,3 5,6 - - 0,0
25.10.2020 22:00:00 6,5 5,9 - - 0,0
25.10.2020 21:00:00 6,6 5,9 - - 0,0
25.10.2020 20:00:00 7,4 6,3 - - 0,0
25.10.2020 19:00:00 7,4 6,2 - - 0,0
25.10.2020 18:00:00 7,7 6,6 - - 0,0
25.10.2020 17:00:00 7,7 6,0 - - 0,0
25.10.2020 16:00:00 8,8 6,1 - - 0,0
25.10.2020 15:00:00 8,8 6,2 - - 0,4
25.10.2020 14:00:00 10,1 6,4 - - 0,0
25.10.2020 13:00:00 11,0 6,2 - - 0,0
25.10.2020 12:00:00 10,4 6,8 - - 0,0
25.10.2020 11:00:00 11,3 7,4 - - 0,0
25.10.2020 10:00:00 9,1 7,7 - - 0,0
25.10.2020 09:00:00 7,9 6,9 11,5 12,7 0,4
25.10.2020 08:00:00 7,6 6,1 - - 0,2
25.10.2020 07:00:00 6,7 5,7 - - 0,0
25.10.2020 06:00:00 6,7 5,7 - - 0,0
25.10.2020 05:00:00 7,2 6,2 - - 0,0
25.10.2020 04:00:00 6,7 6,0 - - 0,0
25.10.2020 03:00:00 7,1 6,2 - - 0,0
25.10.2020 02:00:00 6,1 5,3 - - 0,0
25.10.2020 01:00:00 6,5 5,5 - - 0,0
25.10.2020 00:00:00 - - - - -
24.10.2020 23:00:00 8,0 6,7 - - 0,0
24.10.2020 22:00:00 8,8 7,6 - - 0,0
24.10.2020 21:00:00 9,1 8,0 - - 0,0
24.10.2020 20:00:00 9,8 8,9 - - 4,0
24.10.2020 19:00:00 11,6 10,8 - - 0,4
24.10.2020 18:00:00 11,8 10,9 - - 0,2
24.10.2020 17:00:00 11,8 10,9 - - 0,0
24.10.2020 16:00:00 11,6 10,7 - - 1,2
24.10.2020 15:00:00 11,5 10,8 - - 2,6
24.10.2020 14:00:00 12,6 11,5 - - 0,6
24.10.2020 13:00:00 13,1 11,8 - - 1,0
24.10.2020 12:00:00 13,5 12,0 - - 0,0
24.10.2020 11:00:00 13,4 11,4 - - 0,0
24.10.2020 10:00:00 12,5 10,7 - - 0,0
24.10.2020 09:00:00 11,4 9,6 11,7 12,7 0,0
24.10.2020 08:00:00 10,8 9,0 - - 0,0
24.10.2020 07:00:00 10,0 7,7 - - 0,0
24.10.2020 06:00:00 9,2 6,9 - - 0,0
24.10.2020 05:00:00 8,4 6,4 - - 0,0
24.10.2020 04:00:00 7,2 5,3 - - 0,0
24.10.2020 03:00:00 6,9 4,8 - - 0,0
24.10.2020 02:00:00 7,0 5,2 - - 0,0
24.10.2020 01:00:00 7,1 5,3 - - 0,0
24.10.2020 00:00:00 6,5 4,9 - - 0,0
23.10.2020 23:00:00 6,4 4,1 - - 0,0
23.10.2020 22:00:00 6,4 3,9 - - 0,0
23.10.2020 21:00:00 6,4 4,2 - - 0,0
23.10.2020 20:00:00 6,4 4,1 - - 0,0
23.10.2020 19:00:00 7,0 4,1 - - 0,0
23.10.2020 18:00:00 8,3 4,3 - - 0,0
23.10.2020 17:00:00 9,2 4,6 - - 0,0
23.10.2020 16:00:00 10,8 5,7 - - 0,0
23.10.2020 15:00:00 11,8 8,0 - - 0,0
23.10.2020 14:00:00 11,2 9,7 - - 0,6
23.10.2020 13:00:00 12,2 9,7 - - 0,0
23.10.2020 12:00:00 11,5 10,0 - - 0,2
23.10.2020 11:00:00 11,0 9,9 - - 0,0
23.10.2020 10:00:00 10,6 9,7 - - 0,0
23.10.2020 09:00:00 10,3 9,5 12,0 12,7 0,0
23.10.2020 08:00:00 9,8 9,4 - - 0,0
23.10.2020 07:00:00 9,4 9,1 - - 0,0
23.10.2020 06:00:00 8,7 8,4 - - 0,4
23.10.2020 05:00:00 8,3 7,9 - - 0,8
23.10.2020 04:00:00 8,1 7,3 - - 0,2
23.10.2020 03:00:00 8,1 6,6 - - 0,0
23.10.2020 02:00:00 8,2 6,6 - - 0,0
23.10.2020 01:00:00 7,6 6,1 - - 0,0
23.10.2020 00:00:00 7,1 6,1 - - 0,0
22.10.2020 23:00:00 6,5 5,9 - - 0,0
22.10.2020 22:00:00 5,2 3,9 - - 0,0
22.10.2020 21:00:00 7,3 4,5 - - 0,0
22.10.2020 20:00:00 8,0 5,4 - - 0,0
22.10.2020 19:00:00 9,2 5,5 - - 0,0
22.10.2020 18:00:00 9,2 5,3 - - 0,0
22.10.2020 17:00:00 9,8 5,0 - - 0,0
22.10.2020 16:00:00 11,3 4,8 - - 0,0
22.10.2020 15:00:00 12,1 4,3 - - 0,0
22.10.2020 14:00:00 11,9 4,5 - - 0,0
22.10.2020 13:00:00 12,3 5,3 - - 0,0
22.10.2020 12:00:00 12,3 6,2 - - 0,0
22.10.2020 11:00:00 11,1 6,3 - - 0,0
22.10.2020 10:00:00 10,5 6,7 - - 0,0
22.10.2020 09:00:00 9,0 7,2 12,5 12,7 0,0
22.10.2020 08:00:00 8,3 7,2 - - 0,0
22.10.2020 07:00:00 8,5 7,5 - - 0,0
22.10.2020 06:00:00 8,9 7,9 - - 0,0
22.10.2020 05:00:00 10,0 9,1 - - 0,0
22.10.2020 04:00:00 10,4 9,8 - - 0,0
22.10.2020 03:00:00 10,8 10,3 - - 0,0
22.10.2020 02:00:00 10,8 10,5 - - 0,0
22.10.2020 01:00:00 10,8 10,5 - - 0,0
22.10.2020 00:00:00 10,8 10,3 - - 0,2
21.10.2020 23:00:00 11,0 10,5 - - 2,4
21.10.2020 22:00:00 11,8 11,3 - - 4,6
21.10.2020 21:00:00 12,9 12,4 - - 1,0
21.10.2020 20:00:00 13,0 12,3 - - 0,0
21.10.2020 19:00:00 13,2 12,5 - - 0,4
21.10.2020 18:00:00 13,4 12,7 - - 0,2
21.10.2020 17:00:00 13,5 12,5 - - 0,0

tt = Température de l'air
td = dewpoint
tt -20cm = Température de l'air -20cm
tt -100cm = Température de l'air -100cm
rr = Quantités de précipitations

stations d'obs. à proximité